This is the latest recevied weather packets stored in our database for station/object KG7QQL. If no packets are shown the sender has not sent any weather packets the latest 10 day(s).
| Time | Temp. | Humidity | Pressure | Rain* | Wind** | Luminosity | Snow |
|---|---|---|---|---|---|---|---|
| 1777094390 | 10.56° C | 55% | - | 0 mm | - | - | - |
| 1777094085 | 10.56° C | 52% | - | 0 mm | - | - | - |
| 1777093782 | 10.56° C | 48% | - | 0 mm | - | - | - |
| 1777093478 | 10.56° C | 50% | - | 0 mm | - | - | - |
| 1777093173 | 11.11° C | 50% | - | 0 mm | - | - | - |
| 1777092868 | 11.11° C | 49% | - | 0 mm | - | - | - |
| 1777092563 | 10.56° C | 50% | - | 0 mm | - | - | - |
| 1777092259 | 11.11° C | 51% | - | 0 mm | - | - | - |
| 1777091956 | 11.11° C | 51% | - | 0 mm | - | - | - |
| 1777091656 | 11.67° C | 53% | - | 0 mm | - | - | - |
| 1777091352 | 11.67° C | 50% | - | 0 mm | - | - | - |
| 1777091051 | 11.67° C | 50% | - | 0 mm | - | - | - |
| 1777090749 | 11.67° C | 47% | - | 0 mm | - | - | - |
| 1777090446 | 12.22° C | 44% | - | 0 mm | - | - | - |
| 1777090141 | 12.22° C | 45% | - | 0 mm | - | - | - |
| 1777089836 | 12.22° C | 47% | - | 0 mm | - | - | - |
| 1777089532 | 12.22° C | 47% | - | 0 mm | - | - | - |
| 1777089228 | 12.22° C | 47% | - | 0 mm | - | - | - |
| 1777088923 | 12.22° C | 46% | - | 0 mm | - | - | - |
| 1777088618 | 12.78° C | 45% | - | 0 mm | - | - | - |
| 1777088312 | 12.78° C | 43% | - | 0 mm | - | - | - |
| 1777088007 | 13.33° C | 42% | - | 0 mm | - | - | - |
| 1777087702 | 13.33° C | 41% | - | 0 mm | - | - | - |
| 1777087396 | 13.89° C | 42% | - | 0 mm | - | - | - |
| 1777087092 | 13.89° C | 42% | - | 0 mm | - | - | - |
* Rain latest hour (hover to see other rain measurements)
** Current wind speed in m/s (hover to see current wind gust speed)